{"data":{"norad_id":48326,"intl_designator":"2021-036BC","name":"STARLINK-2498","alt_names":[],"object_type":"PAYLOAD","status":"ACTIVE","operator":null,"country":"US","launch_date":"2021-04-29","launch_site_code":"AFETR","launch_vehicle":null,"mission":null,"orbit_class":"UNKNOWN","rcs_meters":null,"size_class":null,"mass_kg":null,"dimensions":null,"purposes":["comms"],"wikipedia_slug":null,"has_3d_model":false,"image_url":null,"decayed_at":null,"tle_current":{"epoch":"2026-09-20T01:23:00.921120Z","epoch_age_seconds":71984,"freshness":"FRESH","line1":"1 48326U 21036BC  26263.05764955  .00007247  00000+0  24515-3 0  9994","line2":"2 48326  53.1584 276.5547 0001666  77.9153 282.2035 15.31690686297823","mean_motion":15.31690686,"eccentricity":0.0001666,"inclination_deg":53.1584,"raan_deg":276.5547,"arg_perigee_deg":77.9153,"mean_anomaly_deg":282.2035,"bstar":0.00024515,"rev_number":29782,"period_min":94.01375964233,"perigee_km":469.62673238268,"apogee_km":471.90878744868,"semimajor_km":6848.9047599157,"source":"CELESTRAK","updated_at":"2026-09-20T09:00:38.936825Z"}}}